TimeMST,TemperatureF,Dew PointF,Humidity,Sea Level PressureIn,VisibilityMPH,Wind Direction,Wind SpeedMPH,Gust SpeedMPH,PrecipitationIn,Events,Conditions,WindDirDegrees,DateUTC
12:53 AM,18.0,-4.0,38,29.84,10.0,Calm,Calm,-,N/A,,Overcast,0,2012-12-19 07:53:00
1:53 AM,19.0,1.0,46,29.85,10.0,NW,3.5,-,N/A,,Overcast,320,2012-12-19 08:53:00
2:53 AM,18.0,-0.0,45,29.84,10.0,Calm,Calm,-,N/A,,Overcast,0,2012-12-19 09:53:00
3:53 AM,18.0,-2.0,41,29.86,10.0,North,3.5,-,N/A,,Overcast,350,2012-12-19 10:53:00
4:53 AM,18.0,-0.9,44,29.89,10.0,North,5.8,-,N/A,,Overcast,350,2012-12-19 11:53:00
5:53 AM,18.0,-2.9,40,29.91,10.0,NNW,3.5,-,N/A,,Overcast,330,2012-12-19 12:53:00
6:53 AM,19.0,-2.9,38,29.95,10.0,Calm,Calm,-,N/A,,Overcast,0,2012-12-19 13:53:00
7:53 AM,18.0,-2.9,40,29.96,10.0,Calm,Calm,-,N/A,,Overcast,0,2012-12-19 14:53:00
8:53 AM,18.0,-2.0,41,30.00,10.0,NW,5.8,-,N/A,,Overcast,310,2012-12-19 15:53:00
9:53 AM,19.0,1.0,46,30.00,10.0,NNW,9.2,-,N/A,,Overcast,340,2012-12-19 16:53:00
10:53 AM,19.0,1.0,46,30.01,10.0,NNW,8.1,-,N/A,,Overcast,340,2012-12-19 17:53:00
11:53 AM,21.0,1.9,44,29.97,10.0,Variable,6.9,-,N/A,,Partly Cloudy,0,2012-12-19 18:53:00
12:53 PM,21.0,3.9,48,29.98,10.0,NNW,10.4,19.6,N/A,,Mostly Cloudy,340,2012-12-19 19:53:00
1:53 PM,21.9,3.9,46,29.99,10.0,Variable,5.8,-,N/A,,Clear,0,2012-12-19 20:53:00
2:53 PM,21.0,3.0,46,30.02,10.0,Variable,5.8,-,N/A,,Scattered Clouds,0,2012-12-19 21:53:00
3:53 PM,19.0,3.0,50,30.06,10.0,NW,5.8,-,N/A,,Partly Cloudy,310,2012-12-19 22:53:00
4:53 PM,15.1,3.0,59,30.10,10.0,WNW,3.5,-,N/A,,Clear,290,2012-12-19 23:53:00
5:53 PM,12.9,3.0,65,30.13,10.0,West,4.6,-,N/A,,Clear,280,2012-12-20 00:53:00
6:53 PM,12.0,1.0,61,30.14,10.0,NW,3.5,-,N/A,,Clear,310,2012-12-20 01:53:00
7:53 PM,12.0,-0.0,59,30.16,10.0,NW,6.9,-,N/A,,Clear,310,2012-12-20 02:53:00
8:53 PM,14.0,-2.0,49,30.16,10.0,WNW,6.9,-,N/A,,Clear,300,2012-12-20 03:53:00
9:53 PM,14.0,-0.9,52,30.15,10.0,NW,5.8,-,N/A,,Clear,310,2012-12-20 04:53:00
10:53 PM,12.0,-0.9,56,30.17,10.0,WNW,3.5,-,N/A,,Clear,300,2012-12-20 05:53:00
11:53 PM,7.0,-2.0,67,30.19,10.0,Calm,Calm,-,N/A,,Clear,0,2012-12-20 06:53:00